User: anonymous   Login
Location: Chevoux
(46.3801°N, 4.9476°E)
Time: 01:47:30
(UTC+00:00)
Language:

Iridium 4 Rocket - Orbit

View from above orbital plane
View from above orbital plane
View from above satellite
View from above satellite

Ground track
Ground track

The orbit data is extracted from the following two-line orbital elements,

1 24797U 97020F   21102.51527156  .00000107  00000-0  17912-4 0  9997
2 24797  86.9034 202.2847 0224084 344.8501  24.5158 14.44236267259281
Epoch (UTC): 12 April 2021 12:21:59
Eccentricity: 0.0224084
inclination: 86.9034°
perigee height: 585 km
apogee height: 904 km
right ascension of ascending node: 202.2847°
argument of perigee: 344.8501°
revolutions per day: 14.44236267
mean anomaly at epoch: 24.5158°
orbit number at epoch: 25928

The dashed part of the orbit path shows where the satellite is in the earth's shadow,  

DLR